contact:dominique.lefevre@mio.osupytheas.fr, maurice.libes@osupytheas.fr, didier.mallarino@osupytheas.fr
Project:EMSO http://www.emso-fr.org/EMSO-France
Depth: 2436.0 m
Title:EMSO Ligure Ouest : Data MII capteur CSTAR
DateTime,Latitude,Longitude,Instrument_Serial,Reference_Counts,Signal_Counts,Corrected_Signal_raw_counts,Calculated_Beam_c_inverse_meters,Internal_thermistor_counts
DateTime,Latitude,Longitude,Instrument_Serial,Reference_Counts,Signal_Counts,Corrected_Signal_raw_counts,Calculated_Beam_c_inverse_meters,Internal_thermistor_counts
2022-04-30T00:00:54,42.805,6.029,CST-1368DR,4775,5613,12537,0.878,551
2022-04-30T00:03:56,42.805,6.029,CST-1368DR,4775,5618,12547,0.875,551
2022-04-30T00:06:57,42.805,6.029,CST-1368DR,4775,5603,12513,0.886,551
2022-04-30T00:09:59,42.805,6.029,CST-1368DR,4775,5614,12538,0.878,551
2022-04-30T00:13:01,42.805,6.029,CST-1368DR,4775,5612,12533,0.880,551
2022-04-30T00:16:02,42.805,6.029,CST-1368DR,4775,5619,12551,0.874,551
2022-04-30T00:19:04,42.805,6.029,CST-1368DR,4775,5618,12547,0.875,551
2022-04-30T00:22:05,42.805,6.029,CST-1368DR,4775,5618,12547,0.875,551
2022-04-30T00:25:07,42.805,6.029,CST-1368DR,4775,5617,12545,0.876,551
2022-04-30T00:28:09,42.805,6.029,CST-1368DR,4775,5618,12548,0.875,551
2022-04-30T00:31:10,42.805,6.029,CST-1368DR,4775,5618,12548,0.875,551
2022-04-30T00:34:12,42.805,6.029,CST-1368DR,4775,5619,12549,0.875,551
2022-04-30T00:37:13,42.805,6.029,CST-1368DR,4775,5616,12544,0.876,551
2022-04-30T00:40:15,42.805,6.029,CST-1368DR,4775,5620,12552,0.874,551
2022-04-30T00:43:16,42.805,6.029,CST-1368DR,4775,5608,12526,0.882,551
2022-04-30T00:46:18,42.805,6.029,CST-1368DR,4775,5584,12472,0.899,551
2022-04-30T00:49:20,42.805,6.029,CST-1368DR,4775,5586,12475,0.898,551
2022-04-30T00:52:21,42.805,6.029,CST-1368DR,4775,5635,12586,0.863,551
2022-04-30T00:55:23,42.805,6.029,CST-1368DR,4775,5632,12579,0.865,551
2022-04-30T00:58:24,42.805,6.029,CST-1368DR,4775,5634,12582,0.864,551
2022-04-30T01:01:26,42.805,6.029,CST-1368DR,4775,5635,12586,0.863,551
2022-04-30T01:04:27,42.805,6.029,CST-1368DR,4775,5637,12589,0.862,551
2022-04-30T01:07:29,42.805,6.029,CST-1368DR,4775,5634,12584,0.863,551
2022-04-30T01:10:31,42.805,6.029,CST-1368DR,4774,5424,12116,01.015,551
2022-04-30T01:13:32,42.805,6.029,CST-1368DR,4775,5636,12587,0.863,551
2022-04-30T01:16:34,42.805,6.029,CST-1368DR,4775,5635,12586,0.863,551
2022-04-30T01:19:35,42.805,6.029,CST-1368DR,4775,5635,12586,0.863,551
2022-04-30T01:22:37,42.805,6.029,CST-1368DR,4775,5635,12585,0.863,551
2022-04-30T01:25:39,42.805,6.029,CST-1368DR,4775,5636,12587,0.863,551
2022-04-30T01:28:40,42.805,6.029,CST-1368DR,4775,5635,12585,0.863,551
2022-04-30T01:31:42,42.805,6.029,CST-1368DR,4775,5634,12583,0.864,551
2022-04-30T01:34:43,42.805,6.029,CST-1368DR,4775,5637,12590,0.862,551
2022-04-30T01:37:45,42.805,6.029,CST-1368DR,4775,5636,12589,0.862,551
2022-04-30T01:40:46,42.805,6.029,CST-1368DR,4776,5637,12588,0.862,551
2022-04-30T01:43:48,42.805,6.029,CST-1368DR,4775,5636,12589,0.862,551
2022-04-30T01:46:50,42.805,6.029,CST-1368DR,4776,5637,12587,0.863,551
2022-04-30T01:49:51,42.805,6.029,CST-1368DR,4775,5636,12587,0.863,551
2022-04-30T01:52:53,42.805,6.029,CST-1368DR,4775,5637,12590,0.862,551
2022-04-30T01:55:54,42.805,6.029,CST-1368DR,4775,5635,12586,0.863,551
2022-04-30T01:58:56,42.805,6.029,CST-1368DR,4775,5634,12584,0.863,551
2022-04-30T02:01:58,42.805,6.029,CST-1368DR,4776,5637,12588,0.862,551
2022-04-30T02:04:59,42.805,6.029,CST-1368DR,4775,5635,12586,0.863,551
2022-04-30T02:08:01,42.805,6.029,CST-1368DR,4775,5636,12587,0.863,551
2022-04-30T02:11:02,42.805,6.029,CST-1368DR,4775,5636,12589,0.862,551
2022-04-30T02:14:04,42.805,6.029,CST-1368DR,4775,5637,12589,0.862,551
2022-04-30T02:17:05,42.805,6.029,CST-1368DR,4775,5636,12588,0.862,551
2022-04-30T02:20:07,42.805,6.029,CST-1368DR,4775,5635,12585,0.863,551
2022-04-30T02:23:09,42.805,6.029,CST-1368DR,4775,5636,12587,0.863,551
2022-04-30T02:26:10,42.805,6.029,CST-1368DR,4775,5635,12586,0.863,551
2022-04-30T02:29:12,42.805,6.029,CST-1368DR,4775,5635,12586,0.863,551
2022-04-30T02:32:13,42.805,6.029,CST-1368DR,4775,5634,12584,0.863,551
2022-04-30T02:35:15,42.805,6.029,CST-1368DR,4775,5630,12575,0.866,551
2022-04-30T02:38:16,42.805,6.029,CST-1368DR,4775,5631,12576,0.866,551
2022-04-30T02:41:18,42.805,6.029,CST-1368DR,4775,5630,12575,0.866,551
2022-04-30T02:44:20,42.805,6.029,CST-1368DR,4775,5630,12575,0.866,551
2022-04-30T02:47:21,42.805,6.029,CST-1368DR,4775,5630,12574,0.867,551
2022-04-30T02:50:23,42.805,6.029,CST-1368DR,4775,5630,12575,0.866,551
2022-04-30T02:53:24,42.805,6.029,CST-1368DR,4775,5630,12575,0.866,551
2022-04-30T02:56:26,42.805,6.029,CST-1368DR,4775,5628,12571,0.868,551
2022-04-30T02:59:28,42.805,6.029,CST-1368DR,4775,5629,12571,0.868,550
2022-04-30T03:02:29,42.805,6.029,CST-1368DR,4775,5630,12575,0.866,551
2022-04-30T03:05:31,42.805,6.029,CST-1368DR,4775,5631,12576,0.866,551
2022-04-30T03:08:32,42.805,6.029,CST-1368DR,4775,5630,12573,0.867,551
2022-04-30T03:11:34,42.805,6.029,CST-1368DR,4775,5631,12576,0.866,551
2022-04-30T03:14:35,42.805,6.029,CST-1368DR,4775,5631,12577,0.866,551
2022-04-30T03:17:37,42.805,6.029,CST-1368DR,4775,5631,12576,0.866,551
2022-04-30T03:20:39,42.805,6.029,CST-1368DR,4775,5631,12577,0.866,551
2022-04-30T03:23:40,42.805,6.029,CST-1368DR,4775,5632,12578,0.865,551
2022-04-30T03:26:42,42.805,6.029,CST-1368DR,4775,5632,12579,0.865,551
2022-04-30T03:29:43,42.805,6.029,CST-1368DR,4775,5631,12576,0.866,551
2022-04-30T03:32:45,42.805,6.029,CST-1368DR,4775,5631,12577,0.866,551
2022-04-30T03:35:47,42.805,6.029,CST-1368DR,4775,5631,12577,0.866,551
2022-04-30T03:38:48,42.805,6.029,CST-1368DR,4775,5633,12580,0.865,551
2022-04-30T03:41:50,42.805,6.029,CST-1368DR,4775,5631,12577,0.866,551
2022-04-30T03:44:51,42.805,6.029,CST-1368DR,4775,5631,12577,0.866,551
2022-04-30T03:47:53,42.805,6.029,CST-1368DR,4775,5633,12580,0.865,551
2022-04-30T03:50:54,42.805,6.029,CST-1368DR,4775,5634,12582,0.864,551
2022-04-30T03:53:56,42.805,6.029,CST-1368DR,4775,5632,12578,0.865,551
2022-04-30T03:56:58,42.805,6.029,CST-1368DR,4775,5632,12578,0.865,551
2022-04-30T03:59:59,42.805,6.029,CST-1368DR,4775,5633,12581,0.864,551
2022-04-30T04:03:01,42.805,6.029,CST-1368DR,4775,5633,12581,0.864,551
2022-04-30T04:06:02,42.805,6.029,CST-1368DR,4775,5633,12581,0.864,551
2022-04-30T04:09:04,42.805,6.029,CST-1368DR,4775,5633,12581,0.864,551
2022-04-30T04:12:05,42.805,6.029,CST-1368DR,4775,5634,12583,0.864,551
2022-04-30T04:15:07,42.805,6.029,CST-1368DR,4775,5634,12583,0.864,551
2022-04-30T04:18:09,42.805,6.029,CST-1368DR,4775,5633,12581,0.864,551
2022-04-30T04:21:10,42.805,6.029,CST-1368DR,4775,5633,12580,0.865,551
2022-04-30T04:24:12,42.805,6.029,CST-1368DR,4775,5634,12582,0.864,551
2022-04-30T04:27:13,42.805,6.029,CST-1368DR,4775,5633,12581,0.864,551
2022-04-30T04:30:15,42.805,6.029,CST-1368DR,4775,5632,12579,0.865,551
2022-04-30T04:33:17,42.805,6.029,CST-1368DR,4775,5633,12580,0.865,551
2022-04-30T04:36:18,42.805,6.029,CST-1368DR,4775,5633,12581,0.864,551
2022-04-30T04:39:20,42.805,6.029,CST-1368DR,4775,5634,12582,0.864,551
2022-04-30T04:42:21,42.805,6.029,CST-1368DR,4775,5631,12577,0.866,551
2022-04-30T04:45:23,42.805,6.029,CST-1368DR,4775,5633,12580,0.865,551
2022-04-30T04:48:24,42.805,6.029,CST-1368DR,4775,5633,12581,0.864,551
2022-04-30T04:51:26,42.805,6.029,CST-1368DR,4775,5633,12581,0.864,551
2022-04-30T04:54:28,42.805,6.029,CST-1368DR,4775,5633,12581,0.864,551
2022-04-30T04:57:29,42.805,6.029,CST-1368DR,4775,5633,12581,0.864,551
2022-04-30T05:00:31,42.805,6.029,CST-1368DR,4775,5634,12582,0.864,551
2022-04-30T05:03:32,42.805,6.029,CST-1368DR,4775,5633,12581,0.864,551
2022-04-30T05:06:34,42.805,6.029,CST-1368DR,4775,5631,12577,0.866,551
2022-04-30T05:09:36,42.805,6.029,CST-1368DR,4775,5633,12580,0.865,551
2022-04-30T05:12:37,42.805,6.029,CST-1368DR,4775,5633,12581,0.864,551
2022-04-30T05:15:39,42.805,6.029,CST-1368DR,4775,5632,12578,0.865,551
2022-04-30T05:18:40,42.805,6.029,CST-1368DR,4775,5631,12577,0.866,551
2022-04-30T05:21:42,42.805,6.029,CST-1368DR,4775,5631,12576,0.866,551
2022-04-30T05:24:43,42.805,6.029,CST-1368DR,4775,5632,12578,0.865,551
2022-04-30T05:27:45,42.805,6.029,CST-1368DR,4775,5632,12578,0.865,551
2022-04-30T05:30:47,42.805,6.029,CST-1368DR,4775,5632,12578,0.865,551
2022-04-30T05:33:48,42.805,6.029,CST-1368DR,4775,5631,12576,0.866,551
2022-04-30T05:36:50,42.805,6.029,CST-1368DR,4775,5632,12578,0.865,551
2022-04-30T05:39:51,42.805,6.029,CST-1368DR,4775,5632,12578,0.865,551
2022-04-30T05:42:53,42.805,6.029,CST-1368DR,4775,5632,12579,0.865,551
2022-04-30T05:45:54,42.805,6.029,CST-1368DR,4775,5631,12577,0.866,551
2022-04-30T05:48:56,42.805,6.029,CST-1368DR,4775,5632,12578,0.865,551
2022-04-30T05:51:58,42.805,6.029,CST-1368DR,4775,5631,12577,0.866,551
2022-04-30T05:54:59,42.805,6.029,CST-1368DR,4775,5631,12577,0.866,551
2022-04-30T05:58:01,42.805,6.029,CST-1368DR,4775,5632,12578,0.865,551
2022-04-30T06:01:02,42.805,6.029,CST-1368DR,4775,5632,12579,0.865,551
2022-04-30T06:04:04,42.805,6.029,CST-1368DR,4775,5629,12572,0.867,551
2022-04-30T06:07:06,42.805,6.029,CST-1368DR,4775,5630,12574,0.867,551
2022-04-30T06:10:07,42.805,6.029,CST-1368DR,4775,5631,12576,0.866,551
2022-04-30T06:13:09,42.805,6.029,CST-1368DR,4775,5631,12576,0.866,551
2022-04-30T06:16:10,42.805,6.029,CST-1368DR,4775,5629,12572,0.867,551
2022-04-30T06:19:12,42.805,6.029,CST-1368DR,4775,5629,12572,0.867,551
2022-04-30T06:22:13,42.805,6.029,CST-1368DR,4775,5629,12573,0.867,551
2022-04-30T06:25:15,42.805,6.029,CST-1368DR,4775,5629,12571,0.868,551
2022-04-30T06:28:17,42.805,6.029,CST-1368DR,4775,5629,12572,0.867,551
2022-04-30T06:31:18,42.805,6.029,CST-1368DR,4775,5630,12573,0.867,551
2022-04-30T06:34:20,42.805,6.029,CST-1368DR,4775,5627,12567,0.869,551
2022-04-30T06:37:21,42.805,6.029,CST-1368DR,4775,5631,12576,0.866,551
2022-04-30T06:40:23,42.805,6.029,CST-1368DR,4775,5628,12571,0.868,551
2022-04-30T06:43:24,42.805,6.029,CST-1368DR,4775,5631,12576,0.866,551
2022-04-30T06:46:26,42.805,6.029,CST-1368DR,4775,5629,12571,0.868,551
2022-04-30T06:49:28,42.805,6.029,CST-1368DR,4775,5629,12572,0.867,551
2022-04-30T06:52:29,42.805,6.029,CST-1368DR,4775,5628,12570,0.868,551
2022-04-30T06:55:31,42.805,6.029,CST-1368DR,4775,5628,12570,0.868,551
2022-04-30T06:58:32,42.805,6.029,CST-1368DR,4775,5629,12573,0.867,551
2022-04-30T07:01:34,42.805,6.029,CST-1368DR,4775,5628,12571,0.868,551
2022-04-30T07:04:36,42.805,6.029,CST-1368DR,4775,5628,12571,0.868,551
2022-04-30T07:07:37,42.805,6.029,CST-1368DR,4775,5627,12568,0.869,551
2022-04-30T07:10:39,42.805,6.029,CST-1368DR,4775,5625,12562,0.870,551
2022-04-30T07:13:40,42.805,6.029,CST-1368DR,4775,5625,12564,0.870,551
2022-04-30T07:16:42,42.805,6.029,CST-1368DR,4775,5622,12557,0.872,551
2022-04-30T07:19:43,42.805,6.029,CST-1368DR,4775,5625,12562,0.870,551
2022-04-30T07:22:45,42.805,6.029,CST-1368DR,4775,5619,12551,0.874,551
2022-04-30T07:25:47,42.805,6.029,CST-1368DR,4775,5624,12562,0.870,551
2022-04-30T07:28:48,42.805,6.029,CST-1368DR,4775,5621,12553,0.873,551
2022-04-30T07:31:50,42.805,6.029,CST-1368DR,4775,5618,12548,0.875,551
2022-04-30T07:34:51,42.805,6.029,CST-1368DR,4775,5614,12538,0.878,551
2022-04-30T07:37:53,42.805,6.029,CST-1368DR,4775,5614,12538,0.878,551
2022-04-30T07:40:54,42.805,6.029,CST-1368DR,4775,5623,12558,0.872,551
2022-04-30T07:43:56,42.805,6.029,CST-1368DR,4775,5618,12548,0.875,551
2022-04-30T07:46:58,42.805,6.029,CST-1368DR,4775,5612,12533,0.880,551
2022-04-30T07:49:59,42.805,6.029,CST-1368DR,4775,5607,12523,0.883,551
2022-04-30T07:53:01,42.805,6.029,CST-1368DR,4775,5610,12530,0.881,551
2022-04-30T07:56:02,42.805,6.029,CST-1368DR,4775,5603,12514,0.886,551
2022-04-30T07:59:04,42.805,6.029,CST-1368DR,4775,5608,12525,0.882,551
2022-04-30T08:02:06,42.805,6.029,CST-1368DR,4775,5606,12521,0.884,551
2022-04-30T08:05:07,42.805,6.029,CST-1368DR,4775,5606,12521,0.884,551
2022-04-30T08:08:09,42.805,6.029,CST-1368DR,4775,5601,12509,0.887,551
2022-04-30T08:11:10,42.805,6.029,CST-1368DR,4775,5605,12518,0.885,551
2022-04-30T08:14:12,42.805,6.029,CST-1368DR,4775,5601,12510,0.887,551
2022-04-30T08:17:13,42.805,6.029,CST-1368DR,4775,5601,12510,0.887,551
2022-04-30T08:20:15,42.805,6.029,CST-1368DR,4775,5599,12505,0.889,551
2022-04-30T08:23:17,42.805,6.029,CST-1368DR,4775,5599,12506,0.888,551
2022-04-30T08:26:18,42.805,6.029,CST-1368DR,4775,5598,12502,0.890,551
2022-04-30T08:29:20,42.805,6.029,CST-1368DR,4775,5600,12508,0.888,551
2022-04-30T08:32:21,42.805,6.029,CST-1368DR,4775,5598,12504,0.889,551
2022-04-30T08:35:23,42.805,6.029,CST-1368DR,4775,5595,12495,0.892,551
2022-04-30T08:38:24,42.805,6.029,CST-1368DR,4775,5598,12503,0.889,551
2022-04-30T08:41:26,42.805,6.029,CST-1368DR,4775,5594,12493,0.893,551
2022-04-30T08:44:28,42.805,6.029,CST-1368DR,4775,5598,12503,0.889,551
2022-04-30T08:47:29,42.805,6.029,CST-1368DR,4775,5593,12492,0.893,551
2022-04-30T08:50:31,42.805,6.029,CST-1368DR,4774,5593,12494,0.892,551
2022-04-30T08:53:32,42.805,6.029,CST-1368DR,4775,5589,12482,0.896,551
2022-04-30T08:56:34,42.805,6.029,CST-1368DR,4775,5589,12483,0.896,551
2022-04-30T08:59:36,42.805,6.029,CST-1368DR,4775,5589,12482,0.896,551
2022-04-30T09:02:37,42.805,6.029,CST-1368DR,4774,5587,12480,0.897,551
2022-04-30T09:05:39,42.805,6.029,CST-1368DR,4775,5589,12482,0.896,551
2022-04-30T09:08:40,42.805,6.029,CST-1368DR,4775,5588,12480,0.897,551
2022-04-30T09:11:42,42.805,6.029,CST-1368DR,4774,5586,12479,0.897,551
2022-04-30T09:14:43,42.805,6.029,CST-1368DR,4775,5588,12481,0.896,551
2022-04-30T09:17:45,42.805,6.029,CST-1368DR,4775,5584,12471,0.900,551
2022-04-30T09:20:47,42.805,6.029,CST-1368DR,4774,5584,12475,0.898,551
2022-04-30T09:23:48,42.805,6.029,CST-1368DR,4774,5583,12473,0.899,551
2022-04-30T09:26:50,42.805,6.029,CST-1368DR,4774,5585,12476,0.898,551
2022-04-30T09:29:51,42.805,6.029,CST-1368DR,4774,5582,12470,0.900,551
2022-04-30T09:32:53,42.805,6.029,CST-1368DR,4774,5585,12477,0.898,551
2022-04-30T09:35:54,42.805,6.029,CST-1368DR,4774,5582,12470,0.900,551
2022-04-30T09:38:56,42.805,6.029,CST-1368DR,4775,5581,12466,0.901,551
2022-04-30T09:41:58,42.805,6.029,CST-1368DR,4774,5580,12464,0.902,551
2022-04-30T09:44:59,42.805,6.029,CST-1368DR,4774,5578,12460,0.903,551
2022-04-30T09:48:01,42.805,6.029,CST-1368DR,4774,5579,12462,0.902,551
2022-04-30T09:51:02,42.805,6.029,CST-1368DR,4774,5574,12453,0.905,551
2022-04-30T09:54:04,42.805,6.029,CST-1368DR,4774,5575,12454,0.905,551
2022-04-30T09:57:06,42.805,6.029,CST-1368DR,4774,5577,12458,0.904,551
2022-04-30T10:00:07,42.805,6.029,CST-1368DR,4774,5577,12458,0.904,551
2022-04-30T10:03:09,42.805,6.029,CST-1368DR,4774,5573,12450,0.906,551
2022-04-30T10:06:10,42.805,6.029,CST-1368DR,4774,5576,12456,0.904,551
2022-04-30T10:09:12,42.805,6.029,CST-1368DR,4774,5574,12451,0.906,551
2022-04-30T10:12:13,42.805,6.029,CST-1368DR,4774,5575,12454,0.905,551
2022-04-30T10:15:15,42.805,6.029,CST-1368DR,4775,5624,12562,0.870,551
2022-04-30T10:18:17,42.805,6.029,CST-1368DR,4775,5627,12567,0.869,551
2022-04-30T10:21:18,42.805,6.029,CST-1368DR,4775,5628,12570,0.868,551
2022-04-30T10:24:20,42.805,6.029,CST-1368DR,4775,5627,12567,0.869,551
2022-04-30T10:27:21,42.805,6.029,CST-1368DR,4775,5628,12571,0.868,551
2022-04-30T10:30:23,42.805,6.029,CST-1368DR,4775,5629,12571,0.868,551
2022-04-30T10:33:25,42.805,6.029,CST-1368DR,4775,5628,12570,0.868,551
2022-04-30T10:36:26,42.805,6.029,CST-1368DR,4775,5630,12574,0.867,551
2022-04-30T10:39:28,42.805,6.029,CST-1368DR,4775,5629,12571,0.868,551
2022-04-30T10:42:29,42.805,6.029,CST-1368DR,4775,5629,12573,0.867,551
2022-04-30T10:45:31,42.805,6.029,CST-1368DR,4775,5628,12571,0.868,551
2022-04-30T10:48:32,42.805,6.029,CST-1368DR,4775,5628,12571,0.868,551
2022-04-30T10:51:34,42.805,6.029,CST-1368DR,4775,5627,12568,0.869,551
2022-04-30T10:54:36,42.805,6.029,CST-1368DR,4775,5628,12571,0.868,551
2022-04-30T10:57:37,42.805,6.029,CST-1368DR,4775,5627,12567,0.869,551
2022-04-30T11:00:39,42.805,6.029,CST-1368DR,4775,5628,12569,0.868,551
2022-04-30T11:03:40,42.805,6.029,CST-1368DR,4775,5627,12567,0.869,551
2022-04-30T11:06:42,42.805,6.029,CST-1368DR,4775,5628,12571,0.868,551
2022-04-30T11:09:43,42.805,6.029,CST-1368DR,4775,5624,12562,0.870,551
2022-04-30T11:12:45,42.805,6.029,CST-1368DR,4775,5625,12563,0.870,551
2022-04-30T11:15:47,42.805,6.029,CST-1368DR,4775,5627,12568,0.869,551
2022-04-30T11:18:48,42.805,6.029,CST-1368DR,4775,5625,12563,0.870,551
2022-04-30T11:21:50,42.805,6.029,CST-1368DR,4775,5624,12560,0.871,551
2022-04-30T11:24:51,42.805,6.029,CST-1368DR,4775,5625,12563,0.870,551
2022-04-30T11:27:53,42.805,6.029,CST-1368DR,4775,5627,12568,0.869,551
2022-04-30T11:30:55,42.805,6.029,CST-1368DR,4775,5620,12551,0.874,551
2022-04-30T11:33:56,42.805,6.029,CST-1368DR,4775,5620,12551,0.874,551
2022-04-30T11:36:58,42.805,6.029,CST-1368DR,4775,5620,12552,0.874,551
2022-04-30T11:39:59,42.805,6.029,CST-1368DR,4775,5620,12552,0.874,551
2022-04-30T11:43:01,42.805,6.029,CST-1368DR,4775,5618,12548,0.875,551
2022-04-30T11:46:02,42.805,6.029,CST-1368DR,4775,5620,12552,0.874,551
2022-04-30T11:49:04,42.805,6.029,CST-1368DR,4775,5621,12554,0.873,551
2022-04-30T11:52:06,42.805,6.029,CST-1368DR,4775,5618,12548,0.875,551
2022-04-30T11:55:07,42.805,6.029,CST-1368DR,4775,5619,12550,0.874,551
2022-04-30T11:58:09,42.805,6.029,CST-1368DR,4775,5621,12554,0.873,551
2022-04-30T12:01:10,42.805,6.029,CST-1368DR,4775,5617,12545,0.876,551
2022-04-30T12:04:12,42.805,6.029,CST-1368DR,4774,5616,12546,0.876,551
2022-04-30T12:07:13,42.805,6.029,CST-1368DR,4775,5618,12548,0.875,551
2022-04-30T12:10:15,42.805,6.029,CST-1368DR,4775,5614,12538,0.878,551
2022-04-30T12:13:17,42.805,6.029,CST-1368DR,4775,5617,12546,0.876,551
2022-04-30T12:16:18,42.805,6.029,CST-1368DR,4774,5618,12550,0.874,551
2022-04-30T12:19:20,42.805,6.029,CST-1368DR,4775,5617,12545,0.876,551
2022-04-30T12:22:21,42.805,6.029,CST-1368DR,4775,5617,12544,0.876,551
2022-04-30T12:25:23,42.805,6.029,CST-1368DR,4775,5618,12548,0.875,551
2022-04-30T12:28:25,42.805,6.029,CST-1368DR,4775,5612,12535,0.879,551
2022-04-30T12:31:26,42.805,6.029,CST-1368DR,4774,5604,12518,0.885,551
2022-04-30T12:34:28,42.805,6.029,CST-1368DR,4774,5603,12516,0.885,551
2022-04-30T12:37:29,42.805,6.029,CST-1368DR,4774,5606,12523,0.883,551
2022-04-30T12:40:31,42.805,6.029,CST-1368DR,4774,5599,12508,0.888,551
2022-04-30T12:43:32,42.805,6.029,CST-1368DR,4774,5600,12510,0.887,551
2022-04-30T12:46:34,42.805,6.029,CST-1368DR,4774,5597,12502,0.890,551
2022-04-30T12:49:36,42.805,6.029,CST-1368DR,4774,5596,12501,0.890,551
2022-04-30T12:52:37,42.805,6.029,CST-1368DR,4774,5593,12493,0.893,551
2022-04-30T12:55:39,42.805,6.029,CST-1368DR,4774,5592,12493,0.893,551
2022-04-30T12:58:40,42.805,6.029,CST-1368DR,4774,5589,12484,0.895,551
2022-04-30T13:01:42,42.805,6.029,CST-1368DR,4774,5588,12482,0.896,551
2022-04-30T13:04:43,42.805,6.029,CST-1368DR,4774,5587,12480,0.897,551
2022-04-30T13:07:45,42.805,6.029,CST-1368DR,4774,5583,12473,0.899,551
2022-04-30T13:10:47,42.805,6.029,CST-1368DR,4774,5583,12473,0.899,551
2022-04-30T13:13:48,42.805,6.029,CST-1368DR,4774,5584,12474,0.899,551
2022-04-30T13:16:50,42.805,6.029,CST-1368DR,4774,5586,12479,0.897,551
2022-04-30T13:19:51,42.805,6.029,CST-1368DR,4774,5581,12468,0.901,551
2022-04-30T13:22:53,42.805,6.029,CST-1368DR,4774,5582,12470,0.900,551
2022-04-30T13:25:55,42.805,6.029,CST-1368DR,4774,5579,12464,0.902,551
2022-04-30T13:28:56,42.805,6.029,CST-1368DR,4774,5580,12465,0.901,551
2022-04-30T13:31:58,42.805,6.029,CST-1368DR,4774,5579,12463,0.902,551
2022-04-30T13:34:59,42.805,6.029,CST-1368DR,4774,5582,12470,0.900,551
2022-04-30T13:38:01,42.805,6.029,CST-1368DR,4774,5580,12465,0.901,551
2022-04-30T13:41:02,42.805,6.029,CST-1368DR,4774,5578,12461,0.903,551
2022-04-30T13:44:04,42.805,6.029,CST-1368DR,4774,5579,12464,0.902,551
2022-04-30T13:47:06,42.805,6.029,CST-1368DR,4774,5579,12463,0.902,551
2022-04-30T13:50:07,42.805,6.029,CST-1368DR,4774,5579,12462,0.902,551
2022-04-30T13:53:09,42.805,6.029,CST-1368DR,4774,5577,12459,0.903,551
2022-04-30T13:56:10,42.805,6.029,CST-1368DR,4774,5581,12467,0.901,551
2022-04-30T13:59:12,42.805,6.029,CST-1368DR,4774,5575,12455,0.905,551
2022-04-30T14:02:14,42.805,6.029,CST-1368DR,4774,5577,12459,0.903,551
2022-04-30T14:05:15,42.805,6.029,CST-1368DR,4774,5574,12452,0.906,551
2022-04-30T14:08:17,42.805,6.029,CST-1368DR,4774,5574,12452,0.906,551
2022-04-30T14:11:18,42.805,6.029,CST-1368DR,4774,5574,12451,0.906,551
2022-04-30T14:14:20,42.805,6.029,CST-1368DR,4774,5573,12450,0.906,551
2022-04-30T14:17:21,42.805,6.029,CST-1368DR,4774,5578,12460,0.903,551
2022-04-30T14:20:23,42.805,6.029,CST-1368DR,4774,5577,12459,0.903,551
2022-04-30T14:23:25,42.805,6.029,CST-1368DR,4774,5575,12453,0.905,551
2022-04-30T14:26:26,42.805,6.029,CST-1368DR,4774,5576,12456,0.904,551
2022-04-30T14:29:28,42.805,6.029,CST-1368DR,4774,5578,12460,0.903,551
2022-04-30T14:32:29,42.805,6.029,CST-1368DR,4774,5575,12454,0.905,551
2022-04-30T14:35:31,42.805,6.029,CST-1368DR,4774,5570,12442,0.909,551
2022-04-30T14:38:32,42.805,6.029,CST-1368DR,4774,5567,12436,0.911,551
2022-04-30T14:41:34,42.805,6.029,CST-1368DR,4774,5570,12442,0.909,551
2022-04-30T14:44:36,42.805,6.029,CST-1368DR,4774,5564,12430,0.913,551
2022-04-30T14:47:37,42.805,6.029,CST-1368DR,4774,5567,12436,0.911,551
2022-04-30T14:50:39,42.805,6.029,CST-1368DR,4774,5566,12434,0.911,551
2022-04-30T14:53:40,42.805,6.029,CST-1368DR,4774,5568,12438,0.910,551
2022-04-30T14:56:42,42.805,6.029,CST-1368DR,4774,5570,12442,0.909,551
2022-04-30T14:59:44,42.805,6.029,CST-1368DR,4774,5571,12445,0.908,551
2022-04-30T15:02:45,42.805,6.029,CST-1368DR,4774,5567,12436,0.911,551
2022-04-30T15:05:47,42.805,6.029,CST-1368DR,4774,5558,12415,0.918,551
2022-04-30T15:08:48,42.805,6.029,CST-1368DR,4774,5567,12436,0.911,551
2022-04-30T15:11:50,42.805,6.029,CST-1368DR,4774,5568,12438,0.910,551
2022-04-30T15:14:51,42.805,6.029,CST-1368DR,4774,5566,12435,0.911,551
2022-04-30T15:17:53,42.805,6.029,CST-1368DR,4774,5567,12437,0.910,551
2022-04-30T15:20:55,42.805,6.029,CST-1368DR,4774,5569,12440,0.910,551
2022-04-30T15:23:56,42.805,6.029,CST-1368DR,4774,5571,12445,0.908,551
2022-04-30T15:26:58,42.805,6.029,CST-1368DR,4774,5571,12446,0.908,551
2022-04-30T15:29:59,42.805,6.029,CST-1368DR,4774,5567,12436,0.911,551
2022-04-30T15:33:01,42.805,6.029,CST-1368DR,4774,5566,12434,0.911,551
2022-04-30T15:36:02,42.805,6.029,CST-1368DR,4774,5569,12440,0.910,551
2022-04-30T15:39:04,42.805,6.029,CST-1368DR,4774,5570,12443,0.909,551
2022-04-30T15:42:06,42.805,6.029,CST-1368DR,4774,5574,12451,0.906,551
2022-04-30T15:45:07,42.805,6.029,CST-1368DR,4774,5569,12441,0.909,551
2022-04-30T15:48:09,42.805,6.029,CST-1368DR,4774,5568,12438,0.910,551
2022-04-30T15:51:10,42.805,6.029,CST-1368DR,4774,5568,12437,0.910,551
2022-04-30T15:54:12,42.805,6.029,CST-1368DR,4774,5569,12441,0.909,551
2022-04-30T15:57:14,42.805,6.029,CST-1368DR,4774,5567,12437,0.910,551
2022-04-30T16:00:15,42.805,6.029,CST-1368DR,4774,5568,12438,0.910,550
2022-04-30T16:03:17,42.805,6.029,CST-1368DR,4774,5566,12435,0.911,551
2022-04-30T16:06:18,42.805,6.029,CST-1368DR,4774,5568,12438,0.910,551
2022-04-30T16:09:20,42.805,6.029,CST-1368DR,4774,5567,12436,0.911,551
2022-04-30T16:12:21,42.805,6.029,CST-1368DR,4774,5560,12421,0.916,551
2022-04-30T16:15:23,42.805,6.029,CST-1368DR,4774,5558,12417,0.917,550
2022-04-30T16:18:25,42.805,6.029,CST-1368DR,4774,5556,12412,0.919,551
2022-04-30T16:21:26,42.805,6.029,CST-1368DR,4774,5556,12411,0.919,551
2022-04-30T16:24:28,42.805,6.029,CST-1368DR,4774,5557,12414,0.918,551
2022-04-30T16:27:29,42.805,6.029,CST-1368DR,4774,5558,12415,0.918,551
2022-04-30T16:30:31,42.805,6.029,CST-1368DR,4774,5558,12417,0.917,551
2022-04-30T16:33:32,42.805,6.029,CST-1368DR,4774,5558,12417,0.917,551
2022-04-30T16:36:34,42.805,6.029,CST-1368DR,4774,5556,12412,0.919,551
2022-04-30T16:39:36,42.805,6.029,CST-1368DR,4774,5558,12415,0.918,551
2022-04-30T16:42:37,42.805,6.029,CST-1368DR,4774,5555,12410,0.919,551
2022-04-30T16:45:39,42.805,6.029,CST-1368DR,4774,5556,12412,0.919,551
2022-04-30T16:48:40,42.805,6.029,CST-1368DR,4774,5560,12420,0.916,551
2022-04-30T16:51:42,42.805,6.029,CST-1368DR,4774,5556,12412,0.919,551